Terug naar catalogus

COSMOS 2251 DEB

LostLEO
NORAD 46433·DEBRIS·🇷🇺 Russia

Gelanceerd Jun 16, 1993 vanaf Plesetsk Cosmodrome

Loading…

Volgende Passages (komende 24 uur)

TLE

VerouderdSource: Space-Track

Epoch: Jul 7, 2022, 11:00 UTC

1 46433U 93036BWX 22188.45876731  .00002276  00000-0  10989-2 0  9999
2 46433  73.9571 109.0166 0187325 255.2171 102.8148 14.10435165398044

Volg COSMOS 2251 DEB in realtime met AllMySat

Download on the App Store